[[{"header":{"parameterUnit":"m.s-1","parameterCategory":1,"la1":30.2991,"la2":30.254,"lo1":-89.0895,"lo2":-89.0444,"dy":0.0017,"dx":0.0017,"nx":28,"ny":28,"refTime":"2024-08-31T09:00:00:Z","depth":0,"parameterNumber":2,"parameterNumberName":"U-component_of_WINDS"},"data":[0,0,0,0,0,0,0,0,0,0,0,0,0,0,0,0,0,0,0,0,0,0,0,0,0,0,0,0,0,0,0,0,0,0,0,0,0,0,0,0,0,0,0,0,0,0,0,0,0,0,0,0,0,0,0,0,0,0,-3.452,-3.4519,0,-3.4478,-3.4478,-3.4477,-3.435,-3.4347,-3.4344,-3.4341,-3.4301,-3.4302,-3.4304,0,0,0,0,0,0,0,0,0,0,0,0,0,-3.4491,-3.4492,-3.452,-3.4519,-3.4519,-3.4478,-3.4478,-3.4477,-3.435,-3.4347,-3.4343,-3.434,-3.43,-3.4302,-3.4304,0,0,0,0,0,0,0,0,0,0,0,0,0,-3.4482,-3.4492,-3.452,-3.445,-3.4444,-3.4478,-3.4478,-3.4477,-3.4351,-3.4347,-3.4342,-3.4338,-3.43,-3.4302,-3.4304,-3.4403,0,0,-3.4311,-3.4312,0,0,0,0,0,0,0,0,-3.4482,-3.4483,-3.4461,-3.4455,-3.4448,-3.4415,-3.4452,-3.4452,-3.4352,-3.4386,-3.4341,-3.4336,-3.4342,-3.4341,-3.4342,-3.4401,-3.44,-3.4312,-3.4313,-3.4314,-3.4315,0,0,0,0,0,0,0,-3.4483,-3.4484,-3.4503,-3.4461,-3.4453,-3.4422,-3.4416,-3.4452,-3.4389,-3.4383,-3.4374,-3.437,-3.4338,-3.4341,-3.4341,-3.4399,-3.4312,-3.4314,-3.4315,-3.4316,-3.4535,-3.4539,0,0,0,0,0,0,-3.4494,-3.4485,-3.4505,-3.4502,-3.4455,-3.4426,-3.4419,-3.443,-3.4388,-3.4377,-3.4374,-3.4364,-3.4339,-3.4338,-3.4339,-3.445,-3.4314,-3.4316,-3.4318,-3.4531,-3.4536,-3.4541,0,0,0,0,0,0,-3.4493,-3.4496,-3.4506,-3.4491,-3.449,-3.4431,-3.4444,-3.4431,-3.4433,-3.4381,-3.4369,-3.4388,-3.4335,-3.4335,-3.4387,-3.4447,-3.4317,-3.4319,-3.4526,-3.4532,-3.4538,-3.4674,0,0,0,0,0,0,-3.4493,-3.4497,-3.4534,-3.4493,-3.4491,-3.4556,-3.4447,-3.4433,-3.4438,-3.4425,-3.4391,-3.4382,-3.4332,-3.4385,-3.439,-3.4447,-3.4321,-3.452,-3.4529,-3.4536,-3.4664,-3.4685,-3.4702,0,0,0,0,0,-3.4492,-3.4575,-3.4536,-3.4539,-3.4536,-3.456,-3.4559,-3.4499,-3.4443,-3.4479,-3.4445,-3.4383,-3.444,-3.4391,-3.4396,-3.4455,-3.4516,-3.4526,-3.4536,-3.4656,-3.4681,-3.4702,0,0,0,0,0,0,-3.4625,-3.4568,-3.4525,-3.4596,-3.4584,-3.4538,-3.4582,-3.4528,-3.4532,-3.452,-3.4447,-3.444,-3.4502,-3.4484,-3.4431,-3.4548,-3.4467,-3.4479,-3.4557,-3.458,-3.4599,-3.4601,-3.4323,0,0,0,0,0,-3.4663,-3.4686,-3.4635,-3.4703,-3.4699,-3.4642,-3.465,-3.4606,-3.459,-3.4584,-3.4554,-3.4542,-3.4556,-3.4568,-3.4579,-3.4662,-3.4651,-3.4705,-3.4724,-3.474,-3.475,-3.479,-3.4813,-3.4574,-3.4573,-3.4573,0,0,-3.4741,-3.4712,-3.4732,-3.4729,-3.4714,-3.474,-3.4639,-3.4671,-3.4689,-3.4589,-3.4635,-3.4614,-3.4595,-3.4662,-3.4691,-3.4649,-3.4814,-3.4752,-3.4765,-3.4767,-3.4803,-3.4826,-3.4846,-3.458,-3.4579,-3.4578,0,0,-3.4895,-3.4877,-3.493,-3.4917,-3.4895,-3.4856,-3.487,-3.4832,-3.4813,-3.4858,-3.4783,-3.4805,-3.4832,-3.4821,-3.4819,-3.4969,-3.4911,-3.4975,-3.5074,-3.5114,-3.5133,-3.5149,-3.5201,-3.522,-3.4986,-3.4986,-3.4987,0,-3.4995,-3.503,-3.4965,-3.5001,-3.5002,-3.4912,-3.4965,-3.4956,-3.4939,-3.4941,-3.4895,-3.4927,-3.4908,-3.4971,-3.5007,-3.501,-3.5021,-3.4978,-3.5136,-3.5151,-3.5166,-3.5214,-3.5234,-3.4994,-3.4993,-3.4992,-3.4992,0,-3.5153,-3.5178,-3.5224,-3.5209,-3.5215,-3.526,-3.5201,-3.5215,-3.5171,-3.5137,-3.5184,-3.5158,-3.5162,-3.5174,-3.5131,-3.523,-3.5205,-3.5149,-3.5066,-3.5197,-3.5241,-3.5259,-3.5005,-3.5002,-3.5,-3.4998,0,0,-3.5389,-3.5336,-3.5354,-3.5344,-3.5313,-3.5332,-3.5373,-3.5375,-3.5388,-3.538,-3.5411,-3.5436,-3.5383,-3.5382,-3.5337,-3.5373,-3.5491,-3.5311,-3.531,-3.5344,-3.5596,-3.5637,-3.5659,-3.5453,-3.5456,-3.5459,-3.5597,0,-3.5533,-3.5598,-3.554,-3.5616,-3.5638,-3.5553,-3.5588,-3.5574,-3.5544,-3.5558,-3.5525,-3.5543,-3.5473,-3.5471,-3.5503,-3.547,-3.554,-3.5459,-3.548,-3.5482,-3.5485,-3.5683,-3.5726,-3.5858,-3.5614,-3.5617,-3.5619,0,-3.571,-3.5707,-3.5786,-3.5748,-3.5755,-3.5788,-3.5784,-3.5799,-3.5781,-3.5756,-3.5754,-3.5699,-3.5736,-3.5657,-3.5706,-3.5653,-3.5658,-3.5643,-3.5647,-3.5644,-3.5557,-3.5684,-3.5899,-3.5918,-3.5646,-3.5644,-3.5642,0,-3.5871,-3.5888,-3.5936,-3.5932,-3.589,-3.5914,-3.5898,-3.5875,-3.5879,-3.5877,-3.5879,-3.5882,-3.5883,-3.5886,-3.5833,-3.5781,-3.5889,-3.5806,-3.5869,-3.587,-3.5893,-3.5892,-3.611,-3.5902,-3.5901,-3.5901,-3.5901,0,-3.6036,-3.6087,-3.6008,-3.6037,-3.6091,-3.6025,-3.608,-3.6055,-3.6036,-3.6059,-3.5987,-3.601,-3.594,-3.5956,-3.5915,-3.5961,-3.5963,-3.5944,-3.5932,-3.5949,-3.5951,-3.5949,-3.5938,-3.5906,-3.5905,-3.5904,-3.5903,0,-3.6225,-3.6174,-3.622,-3.6176,-3.6167,-3.6208,-3.617,-3.6196,-3.6161,-3.6191,-3.6195,-3.614,-3.6155,-3.6103,-3.6111,-3.6083,-3.615,-3.6125,-3.6156,-3.6147,-3.6212,-3.6206,-3.6435,-3.646,-3.6238,-3.6241,-3.6242,0,-3.6333,-3.6369,-3.6329,-3.6338,-3.6325,-3.6343,-3.6346,-3.6283,-3.629,-3.627,-3.6298,-3.6307,-3.631,-3.6339,-3.63,-3.6305,-3.6277,-3.6357,-3.6277,-3.6293,-3.6275,-3.6273,-3.6275,-3.6373,-3.6376,-3.6378,-3.638,0,-3.6529,-3.6501,-3.6509,-3.6508,-3.6514,-3.651,-3.6502,-3.6514,-3.6446,-3.6458,-3.6471,-3.6474,-3.648,-3.649,-3.6486,-3.6469,-3.6413,-3.6406,-3.642,-3.6436,-3.6452,-3.6442,-3.6198,-3.64,-3.6398,-3.6397,-3.6395,-3.6395,-3.6678,-3.6705,-3.6681,-3.6691,-3.6678,-3.6671,-3.6692,-3.666,-3.667,-3.6669,-3.6632,-3.6653,-3.6632,-3.6621,-3.661,-3.6626,-3.6589,-3.661,-3.6615,-3.6621,-3.6631,-3.6452,-3.6626,-3.6625,-3.6624,-3.6624,-3.6623,0,-3.6868,-3.6847,-3.6858,-3.6847,-3.6855,-3.6802,-3.6789,-3.68,-3.6819,-3.6804,-3.6808,-3.6824,-3.6832,-3.6795,-3.6798,-3.6818,-3.6792,-3.682,-3.6817,-3.6814,-3.6665,-3.6651,-3.6841,-3.6841,-3.6841,-3.6841,-3.6841,-3.6841,-3.6967,-3.701,-3.698,-3.7016,-3.6995,-3.7014,-3.7011,-3.7005,-3.6992,-3.7012,-3.7018,-3.6993,-3.6969,-3.697,-3.6975,-3.6964,-3.6967,-3.7005,-3.6984,-3.6846,-3.6824,-3.6804,-3.679,-3.7007,-3.7007,-3.7131,-3.7132,-3.7133]},{"header":{"parameterUnit":"m.s-1","parameterCategory":1,"la1":30.2991,"la2":30.254,"lo1":-89.0895,"lo2":-89.0444,"dy":0.0017,"dx":0.0017,"nx":28,"ny":28,"refTime":"2024-08-31T09:00:00:Z","depth":0,"parameterNumber":3,"parameterNumberName":"V-component_of_WINDS"},"data":[0,0,0,0,0,0,0,0,0,0,0,0,0,0,0,0,0,0,0,0,0,0,0,0,0,0,0,0,0,0,0,0,0,0,0,0,0,0,0,0,0,0,0,0,0,0,0,0,0,0,0,0,0,0,0,0,0,0,-1.2036,-1.2036,0,-1.1991,-1.199,-1.199,-1.1984,-1.1985,-1.1985,-1.1986,-1.1934,-1.1932,-1.193,0,0,0,0,0,0,0,0,0,0,0,0,0,-1.2111,-1.211,-1.2036,-1.2035,-1.2035,-1.1991,-1.199,-1.1989,-1.1984,-1.1985,-1.1985,-1.1986,-1.1934,-1.1932,-1.193,0,0,0,0,0,0,0,0,0,0,0,0,0,-1.2074,-1.211,-1.2036,-1.2027,-1.2026,-1.1991,-1.199,-1.1989,-1.1984,-1.1985,-1.1986,-1.1986,-1.1935,-1.1932,-1.193,-1.1899,0,0,-1.1921,-1.192,0,0,0,0,0,0,0,0,-1.2076,-1.2071,-1.2029,-1.2028,-1.2026,-1.1994,-1.1998,-1.1959,-1.1984,-1.2,-1.1986,-1.1987,-1.1953,-1.1949,-1.1938,-1.1896,-1.1894,-1.1921,-1.1919,-1.1918,-1.1917,0,0,0,0,0,0,0,-1.2078,-1.2073,-1.2018,-1.2028,-1.2027,-1.2023,-1.2018,-1.199,-1.1973,-1.1998,-1.1998,-1.1993,-1.1952,-1.1941,-1.1937,-1.1893,-1.1921,-1.1919,-1.1917,-1.1916,-1.182,-1.1819,0,0,0,0,0,0,-1.2083,-1.2075,-1.2019,-1.2017,-1.2053,-1.2021,-1.2016,-1.2004,-1.1973,-1.1969,-1.1992,-1.1993,-1.1945,-1.194,-1.1935,-1.1895,-1.1918,-1.1916,-1.1914,-1.1821,-1.182,-1.1819,0,0,0,0,0,0,-1.2085,-1.2079,-1.2021,-1.2046,-1.2038,-1.2019,-1.2005,-1.2002,-1.1991,-1.1969,-1.1965,-1.1985,-1.1946,-1.1939,-1.1908,-1.1893,-1.1914,-1.1912,-1.1822,-1.182,-1.1819,-1.1815,0,0,0,0,0,0,-1.2087,-1.2079,-1.2069,-1.2045,-1.2037,-1.1996,-1.2004,-1.2001,-1.1987,-1.1987,-1.196,-1.1957,-1.1946,-1.1912,-1.1905,-1.189,-1.191,-1.1823,-1.1821,-1.182,-1.1817,-1.1814,-1.1812,0,0,0,0,0,-1.209,-1.2069,-1.2069,-1.2062,-1.2024,-1.1996,-1.199,-1.198,-1.1986,-1.1974,-1.1959,-1.1957,-1.1896,-1.1908,-1.1901,-1.1885,-1.1824,-1.1822,-1.182,-1.1818,-1.1814,-1.1812,0,0,0,0,0,0,-1.209,-1.2066,-1.2065,-1.2037,-1.2018,-1.1995,-1.198,-1.1977,-1.1956,-1.1957,-1.1943,-1.1937,-1.1905,-1.1892,-1.1906,-1.1851,-1.186,-1.1856,-1.1861,-1.1858,-1.1856,-1.1859,-1.1908,0,0,0,0,0,-1.2088,-1.2069,-1.2047,-1.2024,-1.2015,-1.1999,-1.1986,-1.198,-1.196,-1.1951,-1.1934,-1.1913,-1.1888,-1.1873,-1.1849,-1.1815,-1.1807,-1.1799,-1.1797,-1.1795,-1.1792,-1.1769,-1.1765,-1.1812,-1.1812,-1.1812,0,0,-1.2081,-1.2065,-1.2054,-1.2024,-1.2009,-1.1987,-1.1993,-1.197,-1.1953,-1.1947,-1.1916,-1.1903,-1.1878,-1.1844,-1.1828,-1.1832,-1.1777,-1.1793,-1.1791,-1.1789,-1.1767,-1.1762,-1.1758,-1.181,-1.1811,-1.1811,0,0,-1.2057,-1.2044,-1.2022,-1.2007,-1.1985,-1.1974,-1.1969,-1.1945,-1.1936,-1.1905,-1.19,-1.1878,-1.1837,-1.1819,-1.1804,-1.1771,-1.1767,-1.1763,-1.175,-1.1728,-1.1725,-1.1721,-1.1707,-1.1702,-1.176,-1.176,-1.176,0,-1.2051,-1.202,-1.2011,-1.1988,-1.1974,-1.1969,-1.1945,-1.193,-1.19,-1.1889,-1.1894,-1.1841,-1.1824,-1.1785,-1.1776,-1.1765,-1.1756,-1.1766,-1.1726,-1.1723,-1.1719,-1.1705,-1.17,-1.176,-1.176,-1.176,-1.176,0,-1.2012,-1.199,-1.1975,-1.1947,-1.1931,-1.1908,-1.1893,-1.1877,-1.1872,-1.1859,-1.1826,-1.1805,-1.1776,-1.1766,-1.176,-1.1725,-1.1727,-1.173,-1.1738,-1.1715,-1.1701,-1.1696,-1.1759,-1.1759,-1.1759,-1.1759,0,0,-1.1987,-1.1955,-1.1949,-1.1936,-1.191,-1.1891,-1.1866,-1.1839,-1.1825,-1.1804,-1.178,-1.1745,-1.1746,-1.1729,-1.1721,-1.1702,-1.1673,-1.1706,-1.1705,-1.1699,-1.1629,-1.1627,-1.1621,-1.1671,-1.167,-1.1669,-1.1631,0,-1.1959,-1.1917,-1.1907,-1.1869,-1.1847,-1.1842,-1.1819,-1.1799,-1.1786,-1.1764,-1.1749,-1.1723,-1.1728,-1.1717,-1.1699,-1.1681,-1.1659,-1.1684,-1.1646,-1.1645,-1.1651,-1.1614,-1.1612,-1.1577,-1.1626,-1.1625,-1.1624,0,-1.1921,-1.19,-1.1861,-1.1835,-1.1826,-1.1806,-1.1779,-1.1759,-1.1735,-1.1726,-1.1707,-1.17,-1.167,-1.168,-1.1637,-1.1655,-1.1638,-1.1627,-1.1625,-1.162,-1.1632,-1.1606,-1.1565,-1.1559,-1.1616,-1.1617,-1.1617,0,-1.1904,-1.1866,-1.1837,-1.1826,-1.1797,-1.1782,-1.1769,-1.1746,-1.1729,-1.1705,-1.1693,-1.1665,-1.1649,-1.1626,-1.161,-1.162,-1.1567,-1.1577,-1.1557,-1.1557,-1.1545,-1.1546,-1.15,-1.1538,-1.1538,-1.1538,-1.1538,0,-1.1873,-1.1848,-1.1829,-1.1811,-1.1782,-1.177,-1.1741,-1.1727,-1.1706,-1.1683,-1.1676,-1.1653,-1.1635,-1.1609,-1.1596,-1.1561,-1.1554,-1.1544,-1.1541,-1.1544,-1.1545,-1.1532,-1.1533,-1.1537,-1.1537,-1.1537,-1.1538,0,-1.185,-1.1836,-1.1804,-1.1778,-1.1771,-1.1751,-1.1727,-1.1708,-1.1695,-1.1665,-1.1657,-1.1635,-1.1604,-1.1587,-1.1547,-1.1538,-1.1498,-1.1497,-1.1507,-1.1505,-1.1485,-1.1486,-1.1427,-1.1417,-1.1464,-1.1464,-1.1463,0,-1.183,-1.1811,-1.1784,-1.1768,-1.1755,-1.1731,-1.1714,-1.17,-1.1682,-1.1652,-1.1635,-1.1604,-1.1579,-1.1529,-1.1507,-1.1476,-1.1473,-1.1454,-1.1468,-1.1471,-1.147,-1.147,-1.1467,-1.1451,-1.1451,-1.1451,-1.145,0,-1.1795,-1.1789,-1.1767,-1.1741,-1.1721,-1.1699,-1.1678,-1.1665,-1.1647,-1.1627,-1.1596,-1.1576,-1.1536,-1.1504,-1.1471,-1.1453,-1.1447,-1.1446,-1.1439,-1.1442,-1.1447,-1.1442,-1.1498,-1.1448,-1.1448,-1.1448,-1.1448,-1.1448,-1.1772,-1.1754,-1.1731,-1.1705,-1.1687,-1.1667,-1.1647,-1.1631,-1.1606,-1.1573,-1.1566,-1.1532,-1.1505,-1.146,-1.1442,-1.1413,-1.1416,-1.1407,-1.1404,-1.1402,-1.14,-1.1453,-1.1407,-1.1407,-1.1408,-1.1408,-1.1408,0,-1.1735,-1.172,-1.1696,-1.1667,-1.1645,-1.1644,-1.1619,-1.16,-1.1572,-1.1548,-1.1523,-1.1485,-1.1454,-1.143,-1.1396,-1.1378,-1.1374,-1.1369,-1.1369,-1.1365,-1.1401,-1.1409,-1.1373,-1.1373,-1.1373,-1.1373,-1.1373,-1.1373,-1.1713,-1.1682,-1.1673,-1.1631,-1.1615,-1.1584,-1.157,-1.1549,-1.153,-1.1489,-1.1464,-1.1449,-1.1424,-1.1388,-1.1357,-1.1351,-1.1338,-1.1333,-1.1326,-1.1359,-1.1363,-1.1366,-1.1374,-1.1331,-1.1331,-1.1292,-1.1292,-1.1291]}]]